Dewpoint
43 42 41 40 40 40 39 39 41 41 41 41 41 41 41 41 42 40 40 39 37 36
42 42 41 41 41 40 41 39 40 41 40 40 41 41 41 40 38 37 38 39 38 37
37 37 39 40 40 40 40 39 39 39 39 39 40 40 38 37 36 36 37 36 35 32
36 37 38 37 37 37 37 36 36 37 37 38 37 35 34 34 32 32 32 29 28 28
35 35 34 34 34 37 36 37 37 37 37 36 36 35 36 36 30 28 27 26 26 26
34 33 33 34 35 35 34 34 35 37 37 37 37 36 34 30 28 26 25 26 27 26
34 34 34 35 35 34 35 34 35 38 38 38 36 34 29 26 26 27 27 28 27 26
35 35 34 33 35 34 35 35 35 37 37 33 29 25 26 27 29 28 26 25 23 23
35 33 32 34 34 34 34 32 33 31 30 29 26 31 31 29 25 23 19 18 17 16
32 31 32 32 32 33 34 33 33 34 34 29 28 30 28 26 21 19 17 16 15 15
30 31 31 30 30 33 33 34 35 33 28 26 26 26 25 23 21 19 17 16 16 16
30 30 29 29 31 31 31 33 32 29 26 24 21 23 22 21 22 20 19 18 18 18
30 29 29 30 30 31 32 31 32 27 25 23 23 21 21 21 24 24 21 19 17 19
30 29 29 29 30 32 32 31 31 27 26 24 23 22 20 21 25 23 21 19 18 18
Lifted_Index
8 9 9 10 10 11 11 12 12 12 12 12 11 11 11 10 10 10 10 9 8 7
9 9 10 10 11 11 12 12 12 12 12 12 11 11 10 10 10 10 9 8 7 6
10 10 10 11 11 12 12 12 12 12 12 11 11 10 10 10 9 9 8 7 6 5
10 10 11 12 12 13 13 13 13 12 12 11 10 10 9 9 8 7 7 7 6 6
11 11 12 13 13 13 14 13 13 12 11 10 10 9 8 7 7 7 7 7 6 6
12 12 13 13 14 14 14 13 12 12 11 10 9 8 7 6 6 6 6 6 6 6
13 13 13 13 14 14 13 13 12 11 10 9 8 7 6 6 6 6 6 6 7 7
13 13 13 13 13 13 13 13 12 11 9 8 7 6 6 6 6 6 7 7 7 8
13 13 13 13 13 13 13 12 11 10 9 8 7 6 6 6 6 7 7 8 8 9
13 13 13 13 13 13 12 12 11 9 8 7 6 6 6 7 7 8 8 9 9 10
13 13 13 13 13 12 11 11 9 8 7 7 6 6 7 7 8 8 9 9 10 10
13 13 13 13 12 11 10 10 8 7 7 6 6 7 7 8 8 8 9 10 11 11
13 13 12 12 11 10 10 9 8 7 7 6 7 7 8 8 8 8 9 10 11 11
13 13 12 11 11 10 9 9 8 7 7 6 7 8 8 8 9 9 9 10 11 11